Погода в Лосне

Россия / Смоленская область     54°35′49″N   32°20′12″E
темп.,
°C
ветер,
м/с
пор.,
м/с
влажн.,
%
обл.,
%
осадки,
мм/ч
давл.,
гПа
погр.,
м
13 апреля, вт
вт1300:00+9в3589100 0.1 102299
03:00+9в1193100 0.2 102112
06:00+8вюв119166 0.0 102110
09:00+12юв3481100 0.0 1021205
12:00+16ююв5765100 0.0 1020770
15:00+17ю7858100 0.4 10191353
18:00+14юз3676100 0.1 1018456
21:00+12ююв2586100 0.4 1019141
14 апреля, ср
ср1400:00+11ююв129096 0.3 101830
03:00+10ююв249583 0.4 1017116
06:00+9ю239761 0.1 101773
09:00+11ю4586100 0.2 1017462
12:00+13ю467691 0.8 1017787
15:00+12ю4577100 0.9 1017506
18:00+13юв3469100 0.0 1016325
21:00+11юв2281100 0.1 101734
15 апреля, чт
чт1500:00+9всв2287100 0.0 101621
03:00+9св2391100 0.4 101678
06:00+9св3692100 0.2 1015160
09:00+10св3588100 0.3 1015207
12:00+12вюв3471100 0.6 1014762
15:00+9вюв3694100 3.4 1015323
18:00+9всв2592100 1.2 1015243
21:00+8св479199 1.2 1015258
16 апреля, пт
пт1600:00+8св499499 0.3 1014290
03:00+7св4109677 0.5 1015256
06:00+7св6139351 0.3 1015379
09:00+9всв71288100 0.4 1015480
12:00+11всв6982100 0.1 1016850
15:00+12всв7117685 0.8 10151068
18:00+12всв61180100 1.5 1015674
21:00+10св51092100 4.9 1017284
17 апреля, сб
сб1700:00+9в6119383 1.1 1018443
03:00+9всв489595 1.4 1019445
06:00+9всв5887100 0.6 1019541
09:00+9всв379099 0.8 1021482
12:00+9всв5791100 0.2 1022668
15:00+12всв7977100 0.2 1021911
18:00+14всв7117136 0.0 10211070
21:00+11всв71681100 0.4 1022675